Tracking 25710 objects as of 6-Jul-2022
HD Live streaming from Space Station
objects crossing your sky now

KITSUNE

Track KITSUNE now!
10-day predictions
KITSUNE is classified as:


NORAD ID: 52148
Int'l Code: 1998-067TK
Perigee: 404.9 km
Apogee: 411.6 km
Inclination: 51.6 °
Period: 92.6 minutes
Semi major axis: 6779 km
RCS: Unknown
Launch date: November 20, 1998
Source: Japan (JPN)
Launch site: TYURATAM MISSILE AND SPACE COMPLEX (TTMTR)

Uplink (MHz):
Downlink (MHz): 437.375
Beacon (MHz): 400.960
Mode: 4800bps GMSK CW
Call sign: JG6YNH
Status: Active


Uplink (MHz):
Downlink (MHz): 5840.000
Beacon (MHz):
Mode: 100k/5MbpsBPSK 10/20MbpsQPSK
Call sign:
Status: Unknown

aabbcc
Your satellite tracking list
Your tracking list is empty




NASA's NSSDC Master Catalog

Two Line Element Set (TLE):
1 52148U 98067TK  22187.21859448  .00014647  00000-0  21803-3 0  9990
2 52148  51.6417 240.0272 0004951 348.2363 118.4767 15.55364270 16167
Source of the keplerian elements: AFSPC